Weather History for Istanbul, Turkey

Change the Weather History Date:

Sunday, November 3, 2013

  Actual Average Record
Temperature  
Mean Temperature 58 °F -  
Max Temperature 61 °F 56 °F 80 °F (2003)
Min Temperature 56 °F 46 °F 37 °F (2006)
Degree Days  
Heating Degree Days 6    
Growing Degree Days 8 (Base 50)    
Moisture  
Dew Point 55 °F    
Average Humidity 83    
Maximum Humidity 94    
Minimum Humidity 72    
Precipitation  
Precipitation 0.00 in - - ()
Sea Level Pressure  
Sea Level Pressure 30.07 in    
Wind  
Wind Speed 5 mph ()    
Max Wind Speed 10 mph    
Max Gust Speed -    
Visibility 3.5 miles    
Events      
Averages and records for this station are not official NWS values.
T = Trace of Precipitation, MM = Missing Value Source: Averaged Metar Reports

Daily Weather History Graph

Daily Weather History Graph

Search for Another Location

Airport:

Trip Planner

Search our weather history database for the weather conditions in past years. The results will help you decide how hot, cold, wet, or windy it might be!

Date:

Astronomy

Nov. 03, 2013 Rise Set
Actual Time 6:37 AM EET 4:58 PM EET
Civil Twilight 6:09 AM EET 5:26 PM EET
Nautical Twilight 5:36 AM EET 5:59 PM EET
Astronomical Twilight 5:04 AM EET 6:31 PM EET
Moon 6:19 AM EET (11/3) 4:58 PM EET (11/3)
Length of Visible Light 11h 17m
Length of Day
10h 20m
Waning Crescent, 0% of the Moon is Illuminated
Nov 3
Waning Crescent
Nov 3
New
Nov 10
First Quarter
Nov 17
Full
Nov 25
Last Quarter

Hourly Weather History & Observations

Time (EET) Temp. Dew Point Humidity Pressure Visibility Wind Dir Wind Speed Gust Speed Precip Events Conditions
12:20 AM 59.0 °F 53.6 °F 82% 30.09 in 3.7 mi West 2.3 mph - N/A   Mostly Cloudy
12:50 AM 59.0 °F 53.6 °F 82% 30.09 in 4.3 mi Calm Calm - N/A   Mostly Cloudy
1:20 AM 59.0 °F 53.6 °F 82% 30.09 in 4.3 mi Variable 2.3 mph - N/A   Mostly Cloudy
1:50 AM 59.0 °F 53.6 °F 82% 30.09 in 2.8 mi Variable 1.2 mph - N/A   Mostly Cloudy
2:00 AM 60 °F 53 °F 72% 30.12 in 3 mi SW 1.2 mph - -   Mist
2:20 AM 59.0 °F 53.6 °F 82% 30.09 in 2.8 mi South 2.3 mph - N/A   Mostly Cloudy
2:50 AM 59.0 °F 53.6 °F 82% 30.09 in 2.8 mi SSW 1.2 mph - N/A   Mostly Cloudy
3:20 AM 59.0 °F 53.6 °F 82% 30.09 in 2.8 mi South 4.6 mph - N/A   Mostly Cloudy
3:50 AM 59.0 °F 55.4 °F 88% 30.09 in 2.8 mi South 5.8 mph - N/A   Mostly Cloudy
4:20 AM 59.0 °F 53.6 °F 82% 30.09 in 2.8 mi SSW 6.9 mph - N/A   Mostly Cloudy
4:50 AM 59.0 °F 53.6 °F 82% 30.09 in 2.8 mi SSW 5.8 mph - N/A   Mostly Cloudy
5:20 AM 59.0 °F 53.6 °F 82% 30.09 in - South 4.6 mph - N/A   Mostly Cloudy
5:50 AM 59.0 °F 53.6 °F 82% 30.09 in - SSW 5.8 mph - N/A   Mostly Cloudy
6:20 AM 59.0 °F 53.6 °F 82% 30.09 in 2.8 mi SSW 6.9 mph - N/A   Mostly Cloudy
6:50 AM 59.0 °F 55.4 °F 88% 30.09 in 2.8 mi South 6.9 mph - N/A   Mostly Cloudy
7:20 AM 59.0 °F 55.4 °F 88% 30.09 in 2.8 mi SSW 6.9 mph - N/A   Mostly Cloudy
7:50 AM 59.0 °F 55.4 °F 88% 30.09 in 2.2 mi SW 6.9 mph - N/A   Mostly Cloudy
8:00 AM 60 °F 55 °F 78% 30.11 in 2 mi SW 6.9 mph - -   Mist
8:20 AM 60.8 °F 55.4 °F 82% 30.09 in 2.2 mi SW 6.9 mph - N/A   Mostly Cloudy
8:50 AM 59.0 °F 53.6 °F 82% 30.09 in 2.5 mi SW 9.2 mph - N/A   Mostly Cloudy
9:20 AM 60.8 °F 55.4 °F 82% 30.09 in 2.5 mi SW 9.2 mph - N/A   Mostly Cloudy
9:50 AM 60.8 °F 53.6 °F 77% 30.09 in 2.5 mi SW 8.1 mph - N/A   Mostly Cloudy
10:20 AM 60.8 °F 55.4 °F 82% 30.09 in 3.7 mi SW 8.1 mph - N/A   Mostly Cloudy
10:50 AM 60.8 °F 55.4 °F 82% 30.09 in 3.7 mi WSW 9.2 mph - N/A   Mostly Cloudy
11:20 AM 60.8 °F 55.4 °F 82% 30.09 in 3.7 mi WSW 9.2 mph - N/A   Mostly Cloudy
11:50 AM 60.8 °F 55.4 °F 82% 30.09 in 3.7 mi WSW 10.4 mph - N/A   Mostly Cloudy
12:20 PM 60.8 °F 55.4 °F 82% 30.06 in 3.7 mi SW 8.1 mph - N/A   Mostly Cloudy
12:50 PM 60.8 °F 55.4 °F 82% 30.06 in 3.7 mi SW 9.2 mph - N/A   Mostly Cloudy
1:20 PM 60.8 °F 55.4 °F 82% 30.06 in 3.7 mi SW 10.4 mph - N/A   Mostly Cloudy
1:50 PM 60.8 °F 55.4 °F 82% 30.06 in 3.7 mi SW 10.4 mph - N/A   Mostly Cloudy
2:00 PM 61 °F 55 °F 75% 30.06 in 4 mi SW 10.4 mph - -   Mist
2:20 PM 60.8 °F 55.4 °F 82% 30.04 in 3.7 mi SW 10.4 mph - N/A   Mostly Cloudy
2:50 PM 60.8 °F 55.4 °F 82% 30.06 in 3.7 mi WSW 9.2 mph - N/A   Mostly Cloudy
3:20 PM 60.8 °F 53.6 °F 77% 30.06 in 3.7 mi WSW 9.2 mph - N/A   Mostly Cloudy
3:50 PM 60.8 °F 53.6 °F 77% 30.04 in 3.7 mi SW 10.4 mph - N/A   Mostly Cloudy
4:20 PM 60.8 °F 53.6 °F 77% 30.04 in 3.7 mi WSW 9.2 mph - N/A   Mostly Cloudy
4:50 PM 60.8 °F 53.6 °F 77% 30.04 in 3.7 mi SW 9.2 mph - N/A   Mostly Cloudy
5:20 PM 59.0 °F 53.6 °F 82% 30.04 in 3.7 mi SW 8.1 mph - N/A   Mostly Cloudy
5:50 PM 59.0 °F 53.6 °F 82% 30.04 in 3.7 mi SSW 8.1 mph - N/A   Mostly Cloudy
6:20 PM 59.0 °F 53.6 °F 82% 30.04 in 3.7 mi SSW 6.9 mph - N/A   Scattered Clouds
6:50 PM 57.2 °F 55.4 °F 94% 30.04 in 3.7 mi SSW 6.9 mph - N/A   Mostly Cloudy
7:20 PM 57.2 °F 55.4 °F 94% 30.04 in 3.7 mi SSW 6.9 mph - N/A   Scattered Clouds
7:50 PM 59.0 °F 55.4 °F 88% 30.04 in 4.3 mi SSW 6.9 mph - N/A   Partly Cloudy
8:00 PM 59 °F 55 °F 82% 30.05 in 4 mi SSW 6.9 mph - -   Mist
8:20 PM 59.0 °F 55.4 °F 88% 30.04 in 4.3 mi SSW 10.4 mph - N/A   Unknown
8:50 PM 59.0 °F 55.4 °F 88% 30.04 in 4.3 mi SSW 9.2 mph - N/A   Partly Cloudy
9:20 PM 59.0 °F 55.4 °F 88% 30.04 in 4.3 mi SSW 9.2 mph - N/A   Partly Cloudy
9:50 PM 59.0 °F 55.4 °F 88% 30.04 in 4.3 mi SSW 9.2 mph - N/A   Partly Cloudy
10:20 PM 59.0 °F 55.4 °F 88% 30.04 in 4.3 mi SSW 8.1 mph - N/A   Partly Cloudy
10:50 PM 59.0 °F 55.4 °F 88% 30.04 in 4.3 mi SSW 9.2 mph - N/A   Partly Cloudy
11:20 PM 59.0 °F 55.4 °F 88% 30.04 in 3.7 mi SSW 9.2 mph - N/A   Partly Cloudy
11:50 PM 59.0 °F 57.2 °F 94% 30.04 in 4.3 mi SSW 10.4 mph - N/A   Partly Cloudy